This is the latest recevied weather packets stored in our database for station/object DM4RS-1. If no packets are shown the sender has not sent any weather packets the latest 10 day(s).
| Time | Temp. | Humidity | Pressure | Rain* | Wind** | Luminosity | Snow |
|---|---|---|---|---|---|---|---|
| 1777439161 | 4.44° C | 58% | 1029.8 hPa | - | - | - | - |
| 1777438561 | 3.89° C | 59% | 1030.2 hPa | - | - | - | - |
| 1777437961 | 3.33° C | 59% | 1029 hPa | - | - | - | - |
| 1777437361 | 2.78° C | 59% | 1030.5 hPa | - | - | - | - |
| 1777436762 | 2.22° C | 59% | 1029 hPa | - | - | - | - |
| 1777436161 | 1.67° C | 59% | 1029.1 hPa | - | - | - | - |
| 1777435561 | 1.67° C | 58% | 1029.4 hPa | - | - | - | - |
| 1777434961 | 1.67° C | 58% | 1029.1 hPa | - | - | - | - |
| 1777434360 | 1.67° C | 59% | 1028.8 hPa | - | - | - | - |
| 1777433760 | 1.11° C | 58% | 1027.7 hPa | - | - | - | - |
| 1777433160 | 1.11° C | 57% | 1029.4 hPa | - | - | - | - |
| 1777432560 | 1.11° C | 54% | 1028.7 hPa | - | - | - | - |
| 1777431359 | 1.11° C | 51% | 1029 hPa | - | - | - | - |
| 1777430759 | 1.11° C | 52% | 1027.8 hPa | - | - | - | - |
| 1777430159 | 1.11° C | 52% | 1029.3 hPa | - | - | - | - |
| 1777429558 | 1.67° C | 53% | 1028.7 hPa | - | - | - | - |
| 1777428958 | 1.67° C | 53% | 1028.3 hPa | - | - | - | - |
| 1777428358 | 1.67° C | 55% | 1028.8 hPa | - | - | - | - |
| 1777427758 | 1.67° C | 53% | 1028.7 hPa | - | - | - | - |
| 1777427158 | 2.22° C | 54% | 1028.5 hPa | - | - | - | - |
| 1777426558 | 2.22° C | 53% | 1028.5 hPa | - | - | - | - |
| 1777425958 | 2.22° C | 52% | 1028.3 hPa | - | - | - | - |
| 1777425357 | 2.22° C | 53% | 1029.3 hPa | - | - | - | - |
| 1777424758 | 2.78° C | 53% | 1027.8 hPa | - | - | - | - |
| 1777424157 | 2.78° C | 54% | 1028.7 hPa | - | - | - | - |
* Rain since midnight (hover to see other rain measurements)
** Current wind speed in m/s (hover to see current wind gust speed)